Location: Chute
(51.2833°N, 1.5667°W)
Time: 08:40:27
(UTC+00:00)

Daily predictions for brighter satellites

Satellite Brightness Start Highest point End
(mag) Time Altitude Azimuth Time Altitude Azimuth Time Altitude Azimuth
ATLAS 2AS CENTAUR R/B 4.0 18:54:47 10° NW 19:01:56 35° NNE 19:08:41 10° ENE
SJ-11-01 4.3 19:01:59 10° SSE 19:06:40 74° ENE 19:11:24 10° N
H-2A R/B 2.2 19:02:33 10° SSE 19:07:44 59° ENE 19:12:50 10° N
STARLINK-1111 3.8 19:03:37 10° WNW 19:07:46 74° N 19:11:55 10° E
Cosmos 2360 Rocket 4.3 19:03:36 10° W 19:08:23 28° NW 19:13:12 10° NNE
STARLINK-1094 3.9 19:07:21 10° WNW 19:11:20 61° SSW 19:15:17 10° SE
Okean 1 Rocket 3.8 19:07:28 10° SSW 19:11:47 58° WNW 19:16:06 10° N
Cosmos 1745 Rocket 4.1 19:05:27 10° N 19:11:49 86° E 19:18:05 10° S
ERBS 2.2 19:08:35 10° SW 19:11:58 83° SSE 19:15:22 10° ENE
STARLINK-1073 3.7 19:08:37 10° WNW 19:12:46 75° N 19:16:55 10° E
Cosmos 2297 3.8 19:07:48 10° NNW 19:13:29 68° ENE 19:19:09 10° SE
Cosmos 1544 Rocket 4.1 19:09:31 10° SSE 19:13:33 36° E 19:17:37 10° NNE
USA 234 3.9 19:09:44 10° ENE 19:15:31 32° SE 19:21:14 10° SSW
HJ-1C 3.8 19:12:21 10° S 19:15:41 67° WSW 19:19:03 10° NNW
NOSS 0 Rocket 4.0 19:09:34 10° SSW 19:15:48 88° ESE 19:22:01 10° NNE
STARLINK-1117 4.0 19:11:53 10° WNW 19:15:50 58° SSW 19:19:47 10° SE
Meteor 2-5 Rocket 3.9 19:11:31 10° NNW 19:17:14 80° W 19:22:49 10° S
STARLINK-1121 3.7 19:13:36 10° WNW 19:17:45 77° N 19:21:53 10° E
STARLINK-1192 4.5 19:15:50 10° SSW 19:19:24 30° SE 19:22:57 10° E
ADEOS Rocket 3.5 19:12:57 10° NNE 19:19:57 76° WNW 19:26:11 10° SSW
STARLINK-1078 4.0 19:16:23 10° WNW 19:20:19 55° SSW 19:24:15 10° SE
Cosmos 2237 Rocket 2.2 19:16:12 10° SSW 19:21:49 82° ESE 19:27:29 10° NNE
Cosmos 1805 3.2 19:18:08 10° S 19:22:03 87° E 19:26:00 10° N
STARLINK-1106 3.7 19:18:34 10° WNW 19:22:43 79° N 19:26:39 11° E
Cosmos 1302 Rocket 4.1 19:18:06 10° NNW 19:23:21 62° ENE 19:28:35 10° SE
STARLINK-1244 4.4 19:20:33 10° SSW 19:24:09 32° SE 19:27:47 10° E
STARLINK-1201 3.6 19:21:22 10° SW 19:24:26 38° SSE 19:27:30 10° E
STARLINK-1108 4.1 19:20:55 10° WNW 19:24:50 52° SSW 19:28:45 10° SE
Cosmos 2278 Rocket 3.8 19:20:21 10° NW 19:25:32 37° WSW 19:30:41 10° S
CZ-2C R/B 3.7 19:22:49 10° NE 19:26:44 21° E 19:30:37 10° SE
STARLINK-1112 3.7 19:23:34 10° WNW 19:27:44 81° NNE 19:31:27 13° E
STARLINK-1138 4.3 19:25:09 10° SSW 19:28:49 34° SE 19:32:31 10° E
STARLINK-1066 4.5 19:26:22 10° W 19:29:11 29° SW 19:31:59 10° SSE
Cosmos 1269 Rocket 4.2 19:24:16 10° S 19:29:20 49° ESE 19:34:27 10° NNE
STARLINK-1071 4.2 19:25:26 10° WNW 19:29:20 49° SSW 19:33:08 11° SE
STARLINK-1081 4.5 19:26:51 10° W 19:29:37 29° SSW 19:32:22 10° SSE
STARLINK-1209 2.9 19:26:52 10° SW 19:29:42 49° SSE 19:32:14 12° E
STARLINK-1070 4.5 19:27:18 10° W 19:30:04 28° SW 19:32:48 10° SSE
STARLINK-1124 4.3 19:26:19 10° WNW 19:30:21 50° SSW 19:34:14 11° SE
STARLINK-1069 4.5 19:27:43 10° W 19:30:30 28° SW 19:33:16 10° SSE
STARLINK-1228 2.9 19:27:51 10° SW 19:30:39 50° SSE 19:33:08 12° E
STARLINK-1085 4.5 19:28:10 10° W 19:30:56 28° SW 19:33:43 10° SSE
Meteor 1-24 Rocket 3.8 19:26:59 10° NNW 19:32:36 80° W 19:37:59 10° S
STARLINK-1128 3.6 19:28:34 10° WNW 19:32:43 83° NNE 19:36:15 14° ESE
SeaSat 1 3.7 19:28:19 10° NNE 19:33:01 45° NW 19:37:42 10° WSW
Cosmos 1553 Rocket 4.4 19:27:08 10° SSW 19:33:10 69° WNW 19:39:17 10° N
STARLINK-1143 4.2 19:29:51 10° SSW 19:33:35 36° SE 19:37:07 11° E
STARLINK-1110 4.3 19:29:58 10° WNW 19:33:51 47° SSW 19:37:29 11° SE
SL-8 R/B 3.8 19:29:12 10° WSW 19:33:56 62° S 19:38:02 14° E
CZ-4 R/B 4.3 19:33:05 10° SW 19:35:41 17° W 19:38:18 10° NW
ARGOS 3.2 19:30:26 10° SSE 19:35:51 83° ENE 19:41:17 10° NNW
STARLINK-1113 3.6 19:33:33 10° WNW 19:37:43 85° NNE 19:41:02 16° ESE
MOS 1 4.4 19:34:31 10° SSE 19:40:10 86° WSW 19:45:53 10° NNW
Cosmos 1470 3.1 19:38:42 10° SSE 19:42:20 41° E 19:46:02 10° NNE
STARLINK-1119 3.6 19:38:31 10° WNW 19:42:41 88° NNE 19:45:48 17° ESE
STARLINK-1122 4.4 19:39:09 10° WNW 19:42:58 42° SSW 19:46:17 13° SE
STARLINK-1241 4.0 19:40:10 10° SW 19:43:57 41° SSE 19:47:06 14° E
STARLINK-1233 3.1 19:41:04 10° SW 19:44:07 51° SSE 19:46:21 17° E
STARLINK-1212 3.1 19:41:31 10° SW 19:44:34 52° SSE 19:46:46 17° E
STARLINK-1105 3.1 19:41:58 10° SW 19:45:01 52° SSE 19:47:13 17° E
STARLINK-1206 3.0 19:42:27 10° SW 19:45:30 52° SSE 19:47:38 17° E
STARLINK-1247 3.0 19:42:53 10° SW 19:45:56 52° SSE 19:48:04 18° E
ISS -3.8 19:42:35 10° W 19:45:58 89° S 19:48:11 20° E
STARLINK-1227 3.0 19:43:17 10° SW 19:46:21 53° SSE 19:48:30 18° E
ATLAS CENTAUR R/B 4.0 19:43:25 10° WNW 19:46:24 18° NNW 19:49:17 10° NNE
Cosmos 2315 Rocket 4.0 19:40:28 10° S 19:46:40 63° E 19:52:57 10° NNE
STARLINK-1218 3.0 19:43:47 10° SW 19:46:49 53° SSE 19:48:55 18° E
SL-08 RB Rocket 3.6 19:42:27 10° SSE 19:46:57 77° ENE 19:51:33 10° NNW
STARLINK-1226 3.0 19:44:14 10° SW 19:47:18 54° SSE 19:49:23 18° E
STARLINK-1114 3.6 19:43:31 10° WNW 19:47:41 89° SSW 19:50:36 19° ESE
STARLINK-1254 3.0 19:44:38 10° SW 19:47:42 54° SSE 19:49:49 18° E
SJ-6B 2.9 19:43:58 10° SSE 19:48:03 87° WSW 19:52:13 10° NNW
STARLINK-1215 3.0 19:45:08 10° SW 19:48:11 54° SSE 19:50:13 19° E
STARLINK-1239 3.9 19:44:42 10° SW 19:48:31 43° SSE 19:51:30 15° E
STARLINK-1231 3.0 19:45:34 10° SW 19:48:38 55° SSE 19:50:39 19° E
MetOp-A 4.2 19:43:22 10° SSE 19:48:38 64° ENE 19:53:57 10° N
Resurs 1-3 3.8 19:44:43 11° SE 19:48:53 53° ENE 19:53:09 10° N
STARLINK-1232 3.0 19:46:28 10° SW 19:49:32 55° SSE 19:51:32 19° E
STARLINK-1217 3.0 19:46:56 10° SW 19:49:59 56° SSE 19:51:58 19° E
Cosmos 1758 3.6 19:46:18 10° SSE 19:50:14 47° E 19:54:12 10° NNE
STARLINK-1208 3.0 19:47:20 10° SW 19:50:25 56° SSE 19:52:25 19° E
STARLINK-1229 2.9 19:47:49 10° SW 19:50:52 56° SSE 19:52:49 20° E
BREEZE-M DEB (TANK) 3.9 19:42:45 10° W 19:50:59 74° S 19:53:10 20° ESE
STARLINK-1271 2.9 19:48:16 10° SW 19:51:20 57° SSE 19:53:16 20° E
STARLINK-1270 2.9 19:48:43 10° SW 19:51:47 57° SSE 19:53:41 20° E
STARLINK-1154 2.9 19:49:09 10° SW 19:52:13 57° SSE 19:54:07 21° E
STARLINK-1130 (DARKSAT) 3.6 19:48:29 10° WNW 19:52:38 87° SSW 19:55:22 21° ESE
STARLINK-1240 3.8 19:49:16 10° SW 19:53:07 46° SSE 19:55:56 17° E
STARLINK-1197 2.9 19:50:04 10° SW 19:53:08 58° SSE 19:54:59 21° E
STARLINK-1189 2.9 19:50:31 10° SW 19:53:35 58° SSE 19:55:26 21° E
Cosmos 2369 Rocket 2.6 19:48:15 10° NNW 19:53:50 50° NE 19:57:50 18° ESE
STARLINK-1187 2.8 19:51:19 10° WSW 19:54:26 64° SSE 19:56:21 21° E
STARLINK-1188 2.9 19:51:24 10° SW 19:54:28 59° SSE 19:56:17 22° E
CZ-2C R/B 3.3 19:49:31 10° S 19:54:32 68° WSW 19:59:23 10° NNW
STARLINK-1198 2.9 19:51:38 10° SW 19:54:42 59° SSE 19:56:31 22° E
STARLINK-1235 2.8 19:51:59 10° WSW 19:55:07 70° SSE 19:57:05 21° ENE
NOSS 2-1 (C) 4.4 19:52:33 10° WSW 19:55:51 42° NW 19:59:40 10° NE
Resurs 01 Rocket 2.0 19:53:05 16° SE 19:56:16 45° ENE 20:00:29 10° N
STARLINK-1199 2.9 19:53:19 10° WSW 19:56:26 61° SSE 19:58:12 23° E
STARLINK-67 2.3 19:54:14 10° WSW 19:56:49 89° S 19:58:04 27° ENE
STARLINK-1191 2.9 19:53:47 10° WSW 19:56:54 61° SSE 19:58:39 23° E
FREGAT/IRIS 3.9 19:54:22 10° SSW 19:56:56 36° W 19:59:31 10° NNW
STARLINK-1210 2.9 19:54:13 10° WSW 19:57:20 62° SSE 19:59:04 23° E
STARLINK-1084 3.6 19:53:27 10° WNW 19:57:38 84° SSW 20:00:09 23° ESE
STARLINK-1216 3.8 19:53:50 10° SW 19:57:43 49° SSE 20:00:23 19° E
STARLINK-1221 2.9 19:54:41 10° WSW 19:57:48 62° SSE 19:59:33 23° E
STARLINK-1219 2.9 19:55:08 10° WSW 19:58:14 63° SSE 19:59:57 24° E
STARLINK-1222 2.9 19:55:35 10° WSW 19:58:41 63° SSE 20:00:22 24° E
Cosmos 1733 3.9 19:55:13 10° SSW 19:58:54 55° WNW 20:02:39 10° N
STARLINK-1211 2.8 19:56:01 10° WSW 19:59:08 63° SSE 20:00:48 24° E
STARLINK-1214 2.8 19:56:29 10° WSW 19:59:35 64° SSE 20:01:15 24° E
STARLINK-1245 2.8 19:56:58 10° WSW 20:00:03 64° SSE 20:01:40 25° E
NOSS 2-1 (D) 4.5 19:56:48 10° WSW 20:00:04 39° NW 20:03:52 10° NE
STARLINK-1238 2.8 19:57:23 10° WSW 20:00:30 64° SSE 20:02:07 25° E
IRIDIUM 114 4.4 19:55:21 10° N 20:00:31 57° E 20:05:35 10° SSE
Meteor 1-22 Rocket 4.4 19:55:52 10° SSW 20:01:09 71° WNW 20:06:28 10° N
STARLINK-1205 2.8 19:58:19 10° WSW 20:01:25 65° SSE 20:02:58 26° E
STARLINK-1204 2.8 19:58:45 10° WSW 20:01:50 65° SSE 20:03:23 26° E
STARLINK-1237 3.7 19:58:27 10° SW 20:02:22 52° SSE 20:04:52 20° E
STARLINK-1098 3.6 19:58:26 10° WNW 20:02:35 80° SSW 20:04:55 25° ESE
Meteor 2-15 Rocket 4.5 19:56:45 10° S 20:02:40 59° E 20:08:38 10° NNE
Cosmos 494 Rocket 4.3 19:58:22 10° SSW 20:03:30 70° WNW 20:08:44 10° NNE
SL-14 R/B 4.2 20:00:43 10° NNW 20:04:40 51° W 20:08:34 10° S
Meteor 1-21 Rocket 4.2 20:01:13 10° N 20:06:48 67° ENE 20:11:31 14° SSE
SPOT 3 Rocket 3.6 20:01:35 10° SSE 20:06:49 87° WSW 20:12:05 10° NNW
Cosmos 1726 3.1 20:06:30 26° E 20:06:51 27° E 20:10:03 10° NNE
STARLINK-1202 3.6 20:03:02 10° SW 20:06:58 55° SSE 20:09:19 22° E
STARLINK-1123 3.6 20:03:26 10° WNW 20:07:35 77° SSW 20:09:44 27° ESE
Cosmos 1709 Rocket 4.4 20:03:14 10° NNW 20:09:26 67° W 20:15:30 10° S
IRIDIUM 103 4.3 20:04:29 10° N 20:09:43 68° E 20:14:45 11° SSE
CZ-4C R/B 4.1 20:05:54 10° WNW 20:11:00 31° NNW 20:16:59 10° NE
Cosmos 2228 4.1 20:11:03 23° E 20:11:10 23° E 20:14:36 10° NE
MOS 1 Rocket 3.7 20:07:00 10° NNE 20:12:02 49° E 20:17:14 10° S
STARLINK-1246 3.6 20:08:06 10° SW 20:12:05 58° SSE 20:14:18 24° E
STARLINK-1097 3.6 20:08:23 10° WNW 20:12:32 74° SSW 20:14:29 30° ESE
Cosmos 2219 Rocket 4.5 20:08:30 10° W 20:13:10 26° NW 20:17:51 10° NNE
Meteor 2-15 4.4 20:08:03 10° S 20:14:06 84° E 20:20:12 10° NNE
Cosmos 292 Rocket 3.7 20:11:32 10° NNW 20:16:21 72° ENE 20:19:07 25° SE
STARLINK-1099 3.7 20:13:23 10° WNW 20:17:31 70° SSW 20:19:17 33° SE
Cosmos 1943 Rocket 2.1 20:13:38 10° NNW 20:19:12 87° ENE 20:22:52 22° SSE
Cosmos 1943 4.2 20:19:28 25° ESE 20:19:28 25° ESE 20:23:57 10° NE
STARLINK-1224 3.5 20:16:55 10° SW 20:20:55 64° SSE 20:22:45 30° E
NOSS 3-4 (A) 4.3 20:14:53 10° NW 20:21:20 47° NNE 20:25:57 21° E
NOSS 3-4 (C) 4.3 20:14:58 10° NW 20:21:26 47° NNE 20:26:03 21° E
Cosmos 2074 Rocket 4.0 20:15:40 10° N 20:21:56 69° ENE 20:26:45 18° SSE
STARLINK-1104 3.7 20:18:23 10° WNW 20:22:30 67° SSW 20:24:04 35° SE
STARLINK-1225 3.4 20:21:36 10° WSW 20:25:37 68° SSE 20:27:17 33° E
Cosmos 1328 4.3 20:22:19 10° N 20:26:06 39° ENE 20:26:45 36° E
USA 186 4.4 20:24:02 10° SSW 20:26:47 22° W 20:29:31 10° NW
STARLINK-1203 3.4 20:23:16 10° WSW 20:27:12 72° SSE 20:28:44 35° E
STARLINK-1144 3.7 20:23:20 10° WNW 20:27:27 64° SSW 20:28:50 38° SE
IRIDIUM 106 4.3 20:22:46 10° N 20:28:01 88° W 20:32:57 12° S
Cosmos 1437 2.8 20:25:39 10° N 20:28:32 51° ENE 20:28:32 51° ENE
Cosmos 1626 4.2 20:26:22 10° NNW 20:29:31 27° W 20:32:40 10° SSW
STARLINK-1234 2.7 20:26:31 10° WSW 20:29:32 80° N 20:29:59 60° ENE
STARLINK-1230 3.4 20:26:14 10° WSW 20:30:14 71° SSE 20:31:44 36° E
Cosmos 1953 2.1 20:29:29 20° S 20:32:07 72° E 20:36:06 10° NNE
STARLINK-1103 3.8 20:28:19 10° WNW 20:32:24 60° SSW 20:33:37 41° SSE
Meteor 2-10 4.2 20:28:33 15° S 20:32:51 57° E 20:38:18 10° NNE
NOSS 3-3 (A) 4.4 20:28:00 10° S 20:33:16 35° ESE 20:39:07 10° NE
NOSS 3-3 (C) 4.4 20:28:07 10° S 20:33:23 35° ESE 20:39:13 10° NE
Cosmos 2084 Rocket 3.6 20:29:06 10° NW 20:33:35 73° SW 20:35:19 36° SSE
SPOT 1/Viking Rocket 4.1 20:32:06 31° ESE 20:33:49 41° ENE 20:38:40 10° N
STARLINK-1243 3.4 20:30:55 10° WSW 20:34:57 74° SSE 20:36:16 40° E
Spot 2 Rocket 3.6 20:33:07 32° SE 20:35:19 59° ENE 20:40:22 10° N
SL-16 R/B 2.4 20:29:56 10° SW 20:35:36 75° WNW 20:41:18 10° NNE
Cosmos 1602 Rocket 4.5 20:32:32 10° NNW 20:36:52 49° W 20:41:06 10° SSW
STARLINK-1101 3.9 20:33:19 10° WNW 20:37:24 57° SSW 20:38:25 43° SSE
STARLINK-1236 3.4 20:35:35 10° WSW 20:39:37 77° SSE 20:40:45 45° E
Aureole 2 Rocket 2.5 20:38:34 10° NNW 20:42:05 73° WSW 20:42:44 54° S
STARLINK-1102 3.9 20:38:18 10° WNW 20:42:21 54° SSW 20:43:11 45° SSE
IGS 5A 3.8 20:42:14 42° E 20:42:40 44° ENE 20:46:39 10° N
Aureole 3 3.8 20:38:40 10° SSW 20:42:45 77° WNW 20:48:01 10° N
DMSP B5D2-2 4.1 20:40:03 10° NNE 20:45:18 84° WNW 20:50:31 10° SSW
STARLINK-1111 4.0 20:43:17 10° WNW 20:47:18 51° SSW 20:47:58 45° S
H-2A R/B 4.2 20:43:14 10° SW 20:47:31 24° W 20:51:44 10° NW
ERBS 3.8 20:45:26 10° W 20:48:34 34° NNW 20:49:56 24° NE
STARLINK-1269 3.4 20:45:00 10° WSW 20:49:02 84° SSE 20:49:49 57° E
Terra 2.9 20:49:37 27° ENE 20:49:58 27° ENE 20:53:59 10° N
CARTOSAT-1 4.4 20:50:52 34° ENE 20:50:55 34° ENE 20:54:49 10° N
Cosmos 2341 Rocket 4.4 20:45:56 10° N 20:52:02 46° ENE 20:53:51 37° ESE
STARLINK-1073 4.0 20:48:16 10° WNW 20:52:16 48° SSW 20:52:45 45° S
Cosmos 1703 3.1 20:48:50 10° N 20:52:48 76° E 20:53:09 69° SE
STARLINK-1200 3.4 20:49:41 10° WSW 20:53:44 87° SSE 20:54:21 63° ENE
ATLAS 2AS CENTAUR R/B 3.1 20:46:37 10° NW 20:54:22 64° NE 20:57:42 34° ESE
Cosmos 1726 Rocket 3.7 20:55:09 53° E 20:55:09 53° E 20:59:23 10° NNE
Cosmos 1825 Rocket 3.6 20:51:53 10° NNW 20:56:20 75° W 20:57:49 41° S
STARLINK-1121 4.1 20:53:16 10° WNW 20:57:14 45° SSW 20:57:32 44° SSW
Cosmos 1603 3.7 20:53:26 20° S 20:57:15 55° ESE 21:02:45 10° NE
Meteor 1-16 Rocket 4.0 20:54:16 25° S 20:57:30 76° E 21:02:59 10° NNE
STARLINK-1192 3.4 20:54:20 10° WSW 20:58:24 89° SSE 20:58:49 71° ENE
USA 234 3.1 20:52:31 10° ENE 20:59:06 83° SSE 21:05:41 10° WSW
Cosmos 2327 Rocket 4.4 20:53:50 10° N 21:00:08 89° E 21:03:23 31° S
STARLINK-1201 3.5 20:57:18 10° W 21:00:05 58° WNW 21:00:05 58° WNW
STARLINK-1106 4.2 20:58:15 10° WNW 21:02:11 42° SSW 21:02:18 42° SSW
STARLINK-1244 3.4 20:59:08 10° WSW 21:03:12 88° NNW 21:03:26 79° ENE
MetOp-B 4.2 21:01:14 34° S 21:03:39 76° WSW 21:09:03 10° NNW
STARLINK-1209 4.3 21:01:38 10° W 21:03:28 33° WNW 21:03:28 33° WNW
Cosmos 1758 Rocket 4.2 21:01:19 10° NNW 21:05:35 52° W 21:07:20 31° SSW
STARLINK-1228 4.4 21:02:44 10° W 21:04:30 32° WNW 21:04:30 32° WNW
Cosmos 2237 Rocket 4.4 21:01:54 10° W 21:06:33 26° NW 21:11:15 10° NNE
STARLINK-1112 4.4 21:03:16 10° WNW 21:07:06 40° SW 21:07:06 40° SW
CZ-2C R/B 2.9 21:02:22 10° N 21:07:32 66° WNW 21:12:38 10° SSW
STARLINK-1138 3.4 21:03:50 10° WSW 21:07:54 85° NNW 21:07:58 85° NNE
COSMOS 2455 3.6 21:03:39 10° NNW 21:09:21 41° NE 21:11:09 33° ENE
Meteor 1-11 4.2 21:04:29 10° NNW 21:10:21 84° ENE 21:12:06 47° SSE
Cosmos 1953 Rocket 3.6 21:07:32 10° NNW 21:11:59 76° W 21:12:43 60° SSW
Cosmos 2184 Rocket 4.5 21:06:28 10° NNW 21:12:41 58° W 21:17:03 20° SSW
STARLINK-1143 3.5 21:08:38 10° WSW 21:12:34 81° WNW 21:12:34 81° WNW
Iridium 4 Rocket 4.4 21:08:56 10° NNE 21:11:53 27° NE 21:11:53 27° NE
Cosmos 1295 Rocket 4.4 21:08:28 10° N 21:14:45 81° E 21:16:48 46° SSE
Cosmos 1461 4.0 21:10:40 10° NNW 21:14:47 36° NE 21:15:09 35° NE
SL-8 R/B 4.0 21:11:35 10° W 21:16:00 49° SSW 21:16:00 49° SSW
Cosmos 2251 Rocket 3.6 21:12:52 10° SSW 21:18:14 77° WNW 21:23:40 10° NNE
Meteor 2-17 Rocket 4.5 21:12:24 10° NNW 21:18:33 79° W 21:21:00 39° S
Cosmos 2218 Rocket 4.3 21:14:50 10° N 21:20:45 45° ENE 21:21:25 44° E
Cosmos 1606 Rocket 3.7 21:20:20 55° SW 21:21:10 72° W 21:25:38 10° N
Cosmos 1656 Rocket 3.6 21:15:45 10° NNW 21:21:29 84° WSW 21:22:37 59° SSE
ISS -1.7 21:19:30 10° W 21:21:09 23° WSW 21:21:09 23° WSW
STARLINK-1241 3.9 21:18:58 10° W 21:22:24 62° W 21:22:24 62° W
ATLAS CENTAUR R/B 4.1 21:24:54 10° NNW 21:26:52 13° N 21:28:46 10° NNE
STARLINK-1239 4.1 21:23:34 10° W 21:26:49 55° W 21:26:49 55° W
ERS-1 Rocket 2.8 21:28:47 77° SE 21:29:10 86° ENE 21:34:14 10° NNW
USA 245 4.5 21:27:48 44° SSW 21:29:12 59° W 21:34:59 10° NNW
STARLINK-1240 4.3 21:28:11 10° W 21:31:15 49° W 21:31:15 49° W
Resurs 01 Rocket 3.6 21:30:38 16° SW 21:32:58 24° W 21:36:35 10° NW
Cosmos 2181 Rocket 4.2 21:33:10 50° E 21:33:10 50° E 21:39:07 10° NNE
Cosmos 2154 Rocket 4.4 21:27:20 10° NNW 21:33:37 62° W 21:36:21 34° SSW
SPOT 5 2.8 21:35:18 68° N 21:35:18 68° N 21:39:12 10° NNW
STARLINK-1216 4.5 21:32:50 10° W 21:35:43 44° W 21:35:43 44° W
Cosmos 1908 4.1 21:37:51 47° NNW 21:37:51 47° NNW 21:40:54 10° N
Cosmos 2369 Rocket 3.4 21:32:35 10° NW 21:37:43 35° WSW 21:39:38 27° SW
Cosmos 1726 4.1 21:40:56 24° W 21:42:01 28° WNW 21:45:18 10° N
Landsat 7 4.4 21:45:26 47° WSW 21:45:54 48° W 21:50:33 10° NNW
Cosmos 921 Rocket 3.8 21:43:04 10° NNW 21:46:09 46° N 21:46:09 46° N
Cosmos 967 Rocket 4.4 21:41:06 10° SW 21:47:34 88° SE 21:54:06 10° NE
Cosmos 2228 4.1 21:47:50 38° W 21:48:30 41° WNW 21:52:36 10° N
SL-8 Rocket 3.8 21:49:39 10° N 21:55:58 88° ENE 21:56:35 75° SSE
Cosmos 1340 Rocket 4.3 21:57:44 34° N 21:57:44 34° N 22:00:09 10° N
Cosmos 2058 4.4 21:56:08 10° N 21:58:26 31° N 21:58:26 31° N
Cosmos 2058 Rocket 3.8 22:01:24 52° NW 22:01:24 52° NW 22:05:21 10° N
CZ-4C R/B 4.1 21:55:45 10° NW 22:01:23 32° NNE 22:06:33 15° ENE
Cosmos 1943 Rocket 4.3 21:58:37 10° WNW 22:02:13 18° W 22:04:24 14° SW
Cosmos 864 Rocket 4.3 21:56:31 10° N 22:02:49 79° E 22:02:57 78° E
Cosmos 1943 3.4 22:01:06 42° SW 22:03:00 68° WNW 22:08:43 10° NNE
Cosmos 2366 rocket 3.8 21:57:00 10° N 22:03:12 82° E 22:03:18 81° E
Mayak 1.1 22:05:51 10° NNE 22:06:55 17° NNE 22:06:55 17° NNE
NOSS 3-4 (A) 3.8 22:05:49 10° NW 22:12:40 68° SW 22:13:24 64° SSW
NOSS 3-4 (C) 3.8 22:05:54 10° NW 22:12:46 68° SW 22:13:29 64° SSW
Cosmos 1959 Rocket 4.5 22:13:22 10° NNW 22:19:45 77° W 22:19:57 77° WSW
NOSS 3-3 (A) 4.3 22:17:46 10° WSW 22:23:46 65° NW 22:30:40 10° NE
NOSS 3-3 (C) 4.3 22:17:52 10° WSW 22:23:52 65° NW 22:30:46 10° NE
Cosmos 1697 Rocket 4.0 22:20:55 10° NNW 22:25:55 31° NE 22:26:03 31° NE
SL-08 R/B 4.4 22:20:34 10° N 22:26:15 76° NNE 22:26:15 76° NNE
Terra 2.9 22:28:29 41° WNW 22:28:29 41° WNW 22:32:09 10° NNW
Cosmos 1140 Rocket 4.5 22:36:41 41° NNE 22:36:41 41° NNE 22:40:03 10° NNE
USA 234 3.7 22:35:36 10° ENE 22:42:00 59° N 22:48:24 10° W
Cosmos 407 Rocket 4.4 22:44:53 46° NNW 22:44:53 46° NNW 22:48:58 10° NNE
ATLAS 2AS CENTAUR R/B 3.4 22:38:04 10° NW 22:45:08 44° WSW 22:45:08 44° WSW
Cosmos 1821 Rocket 4.2 22:41:18 10° N 22:46:52 66° NNE 22:46:52 66° NNE
Cosmos 1980 Rocket 3.7 22:46:01 10° NNW 22:50:49 28° NE 22:50:54 28° NE
COSMOS 2455 3.5 22:49:38 10° NW 22:54:18 47° WNW 22:54:18 47° WNW
ATLAS CENTAUR R/B 4.0 23:03:56 10° NNW 23:05:26 17° N 23:05:26 17° N
Cosmos 1934 Rocket 4.4 23:02:46 10° N 23:08:00 57° NNE 23:08:00 57° NNE
ATLAS 5 CENTAUR R/B 4.1 23:39:11 17° NE 23:39:11 17° NE 23:40:26 10° NE
Cosmos 1833 Rocket 4.5 23:45:09 23° NE 23:45:09 23° NE 23:47:25 10° NE
Mayak 1.4 23:41:56 10° N 23:43:29 18° NNW 23:43:29 18° NNW
CZ-4C R/B 3.1 23:44:29 10° NW 23:51:14 61° NE 23:51:42 60° NE
